| time (UTC) | temp F | wind direction | speed MPH | gust MPH | rain 1hr in | rain 24hr in | rain mn in | humidity % | barometer mb |
| 20260902104542 | 82 | 136 | 8.0 | 14.0 | 0.00 | 0.00 | 0.00 | 83 | 1013.6 |
| 20260902103045 | 82 | 143 | 8.0 | 13.0 | 0.00 | 0.00 | 0.00 | 83 | 1013.6 |
| 20260902101541 | 83 | 142 | 8.0 | 14.0 | 0.00 | 0.00 | 0.00 | 82 | 1013.6 |
| 20260902100041 | 83 | 178 | 7.0 | 14.0 | 0.00 | 0.00 | 0.00 | 82 | 1013.6 |
| 20260902094558 | 83 | 149 | 9.0 | 17.0 | 0.00 | 0.00 | 0.00 | 82 | 1013.7 |
| 20260902093052 | 83 | 134 | 9.0 | 16.0 | 0.00 | 0.00 | 0.00 | 82 | 1013.7 |
| 20260902091559 | 83 | 145 | 7.0 | 16.0 | 0.00 | 0.00 | 0.00 | 82 | 1013.7 |
| 20260902090048 | 83 | 149 | 9.0 | 19.0 | 0.00 | 0.00 | 0.00 | 81 | 1013.7 |
| 20260902084543 | 83 | 146 | 9.0 | 19.0 | 0.00 | 0.00 | 0.00 | 81 | 1013.6 |
| 20260902083045 | 83 | 175 | 10.0 | 18.0 | 0.00 | 0.00 | 0.00 | 80 | 1013.7 |
| 20260902081542 | 83 | 128 | 10.0 | 16.0 | 0.00 | 0.00 | 0.00 | 80 | 1013.8 |
| 20260902080109 | 84 | 161 | 11.0 | 18.0 | 0.00 | 0.00 | 0.00 | 80 | 1014.0 |
| 20260902074548 | 84 | 149 | 11.0 | 19.0 | 0.00 | 0.00 | 0.00 | 80 | 1014.1 |
| 20260902073043 | 84 | 138 | 9.0 | 19.0 | 0.00 | 0.00 | 0.00 | 80 | 1014.1 |
| 20260902071543 | 84 | 153 | 11.0 | 19.0 | 0.00 | 0.00 | 0.00 | 79 | 1014.3 |
| 20260902070043 | 84 | 132 | 9.0 | 19.0 | 0.00 | 0.00 | 0.00 | 78 | 1014.4 |
| 20260902064549 | 84 | 142 | 12.0 | 22.0 | 0.00 | 0.00 | 0.00 | 78 | 1014.6 |
| 20260902063047 | 84 | 150 | 13.0 | 23.0 | 0.00 | 0.00 | 0.00 | 80 | 1014.9 |
| 20260902061552 | 84 | 124 | 7.0 | 16.0 | 0.00 | 0.00 | 0.00 | 80 | 1014.8 |
| 20260902060042 | 84 | 125 | 8.0 | 20.0 | 0.00 | 0.00 | 0.00 | 80 | 1014.8 |
| 20260902054542 | 84 | 144 | 10.0 | 17.0 | 0.00 | 0.00 | 0.00 | 80 | 1014.7 |
| 20260902053054 | 84 | 141 | 9.0 | 18.0 | 0.00 | 0.00 | 0.00 | 79 | 1014.7 |
| 20260902051547 | 84 | 156 | 8.0 | 15.0 | 0.00 | 0.00 | 0.00 | 79 | 1014.8 |
| 20260902050043 | 85 | 122 | 9.0 | 19.0 | 0.00 | 0.00 | 0.00 | 79 | 1014.7 |
| 20260902044543 | 85 | 141 | 10.0 | 17.0 | 0.00 | 0.00 | 0.00 | 78 | 1014.7 |
| 20260902043051 | 85 | 138 | 10.0 | 17.0 | 0.00 | 0.00 | 0.00 | 77 | 1014.9 |
| 20260902041551 | 85 | 132 | 9.0 | 17.0 | 0.00 | 0.00 | 0.00 | 77 | 1014.7 |
| 20260902040043 | 86 | 92 | 9.0 | 18.0 | 0.00 | 0.00 | 0.00 | 76 | 1014.4 |
| 20260902034555 | 86 | 130 | 7.0 | 17.0 | 0.00 | 0.00 | 0.00 | 76 | 1014.3 |
| 20260902033057 | 86 | 146 | 10.0 | 22.0 | 0.00 | 0.00 | 0.00 | 75 | 1014.2 |
| 20260902031552 | 87 | 130 | 12.0 | 20.0 | 0.00 | 0.00 | 0.00 | 74 | 1014.0 |
| 20260902030043 | 87 | 97 | 10.0 | 22.0 | 0.00 | 0.00 | 0.00 | 72 | 1013.7 |
| 20260902024546 | 88 | 133 | 12.0 | 19.0 | 0.00 | 0.00 | 0.00 | 70 | 1013.4 |
| 20260902023049 | 88 | 109 | 11.0 | 19.0 | 0.00 | 0.00 | 0.00 | 69 | 1013.0 |
| 20260902021549 | 89 | 127 | 11.0 | 22.0 | 0.00 | 0.00 | 0.00 | 66 | 1012.5 |
| 20260902020044 | 90 | 109 | 9.0 | 23.0 | 0.00 | 0.00 | 0.00 | 64 | 1012.2 |
| 20260902014542 | 91 | 117 | 9.0 | 17.0 | 0.00 | 0.00 | 0.00 | 62 | 1012.0 |
| 20260902013041 | 92 | 119 | 10.0 | 20.0 | 0.00 | 0.00 | 0.00 | 59 | 1011.9 |
| 20260902011539 | 93 | 112 | 6.0 | 16.0 | 0.00 | 0.00 | 0.00 | 56 | 1011.6 |
| 20260902010046 | 93 | 130 | 8.0 | 18.0 | 0.00 | 0.00 | 0.00 | 53 | 1011.5 |
| 20260902004543 | 94 | 360 | 8.0 | 18.0 | 0.00 | 0.00 | 0.00 | 51 | 1011.4 |
| 20260902003043 | 96 | 142 | 7.0 | 21.0 | 0.00 | 0.00 | 0.00 | 48 | 1011.0 |
| 20260902001542 | 97 | 125 | 9.0 | 18.0 | 0.00 | 0.00 | 0.00 | 44 | 1010.9 |
| 20260902000041 | 98 | 133 | 11.0 | 17.0 | 0.00 | 0.00 | 0.00 | 40 | 1010.7 |
| 20260901234552 | 98 | 125 | 12.0 | 19.0 | 0.00 | 0.00 | 0.00 | 39 | 1010.5 |
| 20260901233045 | 99 | 121 | 11.0 | 19.0 | 0.00 | 0.00 | 0.00 | 40 | 1010.5 |
| 20260901231541 | 99 | 127 | 12.0 | 19.0 | 0.00 | 0.00 | 0.00 | 39 | 1010.4 |
| 20260901230038 | 100 | 93 | 7.0 | 16.0 | 0.00 | 0.00 | 0.00 | 39 | 1010.3 |
| 20260901224555 | 100 | 135 | 10.0 | 17.0 | 0.00 | 0.00 | 0.00 | 40 | 1010.2 |
| 20260901223043 | 101 | 135 | 6.0 | 18.0 | 0.00 | 0.00 | 0.00 | 40 | 1010.2 |
| 20260901221546 | 101 | 133 | 4.0 | 16.0 | 0.00 | 0.00 | 0.00 | 40 | 1010.3 |
| 20260901220050 | 102 | 125 | 3.0 | 14.0 | 0.00 | 0.00 | 0.00 | 41 | 1010.3 |
| 20260901214546 | 101 | 109 | 3.0 | 14.0 | 0.00 | 0.00 | 0.00 | 42 | 1010.6 |
| 20260901213045 | 102 | 116 | 6.0 | 18.0 | 0.00 | 0.00 | 0.00 | 43 | 1010.6 |
| 20260901211543 | 102 | 96 | 6.0 | 15.0 | 0.00 | 0.00 | 0.00 | 43 | 1010.7 |
| 20260901210051 | 101 | 138 | 8.0 | 18.0 | 0.00 | 0.00 | 0.00 | 43 | 1010.9 |
| 20260901204540 | 101 | 144 | 3.0 | 16.0 | 0.00 | 0.00 | 0.00 | 43 | 1011.1 |
| 20260901203049 | 101 | 162 | 7.0 | 15.0 | 0.00 | 0.00 | 0.00 | 40 | 1011.4 |
| 20260901201542 | 101 | 113 | 7.0 | 21.0 | 0.00 | 0.00 | 0.00 | 39 | 1011.8 |
| 20260901200100 | 100 | 130 | 3.0 | 14.0 | 0.00 | 0.00 | 0.00 | 42 | 1012.0 |
| 20260901194601 | 100 | 125 | 4.0 | 17.0 | 0.00 | 0.00 | 0.00 | 42 | 1012.2 |
| 20260901193046 | 99 | 100 | 4.0 | 15.0 | 0.00 | 0.00 | 0.00 | 44 | 1012.4 |
| 20260901191546 | 99 | 136 | 9.0 | 18.0 | 0.00 | 0.00 | 0.00 | 43 | 1012.5 |
| 20260901190050 | 99 | 124 | 7.0 | 13.0 | 0.00 | 0.00 | 0.00 | 43 | 1012.8 |
| 20260901184546 | 98 | 132 | 10.0 | 18.0 | 0.00 | 0.00 | 0.00 | 46 | 1013.3 |
| 20260901183041 | 97 | 146 | 10.0 | 17.0 | 0.00 | 0.00 | 0.00 | 48 | 1013.4 |
| 20260901181546 | 97 | 130 | 4.0 | 15.0 | 0.00 | 0.00 | 0.00 | 49 | 1013.7 |
| 20260901180049 | 96 | 112 | 8.0 | 16.0 | 0.00 | 0.00 | 0.00 | 51 | 1013.9 |
| 20260901174548 | 95 | 360 | 7.0 | 18.0 | 0.00 | 0.00 | 0.00 | 54 | 1014.1 |
| 20260901173042 | 94 | 165 | 9.0 | 16.0 | 0.00 | 0.00 | 0.00 | 54 | 1014.2 |
| 20260901171555 | 93 | 130 | 11.0 | 17.0 | 0.00 | 0.00 | 0.00 | 55 | 1014.3 |
| 20260901170053 | 92 | 130 | 10.0 | 19.0 | 0.00 | 0.00 | 0.00 | 60 | 1014.5 |
| 20260901164553 | 92 | 129 | 5.0 | 11.0 | 0.00 | 0.00 | 0.00 | 61 | 1014.5 |
| 20260901163043 | 91 | 147 | 5.0 | 14.0 | 0.00 | 0.00 | 0.00 | 64 | 1014.6 |
| 20260901161545 | 90 | 186 | 8.0 | 17.0 | 0.00 | 0.00 | 0.00 | 66 | 1014.6 |
| 20260901160042 | 89 | 140 | 7.0 | 15.0 | 0.00 | 0.00 | 0.00 | 68 | 1014.6 |
| 20260901154544 | 89 | 126 | 6.0 | 14.0 | 0.00 | 0.00 | 0.00 | 70 | 1014.8 |
| 20260901153042 | 87 | 140 | 5.0 | 15.0 | 0.00 | 0.00 | 0.00 | 70 | 1014.8 |
| 20260901151543 | 87 | 150 | 8.0 | 17.0 | 0.00 | 0.00 | 0.00 | 72 | 1014.6 |
| 20260901150052 | 86 | 135 | 9.0 | 15.0 | 0.00 | 0.00 | 0.00 | 73 | 1014.6 |
| 20260901144543 | 85 | 169 | 8.0 | 15.0 | 0.00 | 0.00 | 0.00 | 75 | 1014.7 |
| 20260901143042 | 85 | 151 | 8.0 | 17.0 | 0.00 | 0.00 | 0.00 | 76 | 1014.6 |
| 20260901141543 | 84 | 145 | 10.0 | 16.0 | 0.00 | 0.00 | 0.00 | 79 | 1014.5 |
| 20260901140045 | 83 | 139 | 8.0 | 14.0 | 0.00 | 0.00 | 0.00 | 81 | 1014.5 |
| 20260901134548 | 82 | 159 | 8.0 | 14.0 | 0.00 | 0.00 | 0.00 | 83 | 1014.3 |
| 20260901133046 | 81 | 143 | 7.0 | 15.0 | 0.00 | 0.00 | 0.00 | 84 | 1014.4 |
| 20260901131545 | 80 | 125 | 6.0 | 9.0 | 0.00 | 0.00 | 0.00 | 85 | 1014.2 |
| 20260901130049 | 80 | 129 | 5.0 | 10.0 | 0.00 | 0.00 | 0.00 | 85 | 1014.1 |
| 20260901124545 | 80 | 147 | 5.0 | 11.0 | 0.00 | 0.00 | 0.00 | 85 | 1013.8 |
| 20260901123042 | 80 | 138 | 6.0 | 10.0 | 0.00 | 0.00 | 0.00 | 85 | 1013.8 |
| 20260901121602 | 80 | 142 | 5.0 | 10.0 | 0.00 | 0.00 | 0.00 | 85 | 1013.7 |
| 20260901120043 | 80 | 129 | 7.0 | 11.0 | 0.00 | 0.00 | 0.00 | 85 | 1013.5 |
| 20260901114551 | 80 | 162 | 7.0 | 11.0 | 0.00 | 0.00 | 0.00 | 85 | 1013.5 |
| 20260901113056 | 80 | 148 | 6.0 | 15.0 | 0.00 | 0.00 | 0.00 | 85 | 1013.6 |
| 20260901111550 | 80 | 138 | 6.0 | 13.0 | 0.00 | 0.00 | 0.00 | 84 | 1013.4 |
| 20260901110043 | 81 | 142 | 6.0 | 11.0 | 0.00 | 0.00 | 0.00 | 84 | 1013.6 |